| time (UTC) | temp C | wind direction | speed KPH | gust KPH | rain 1hr cm | rain 24hr cm | rain mn cm | humidity % | barometer mb |
| 20260503203514 | 8 | 360 | 11.3 | 27.4 | 0.00 | 0.00 | 0.00 | 35 | 1008.9 |
| 20260503203013 | 9 | 360 | 14.5 | 24.1 | 0.00 | 0.00 | 0.00 | 34 | 1008.9 |
| 20260503202512 | 8 | 360 | 11.3 | 30.6 | 0.00 | 0.00 | 0.00 | 34 | 1008.9 |
| 20260503202012 | 8 | 360 | 11.3 | 33.8 | 0.00 | 0.00 | 0.00 | 33 | 1009.0 |
| 20260503201511 | 8 | 360 | 22.5 | 33.8 | 0.00 | 0.00 | 0.00 | 34 | 1008.8 |
| 20260503201011 | 9 | 360 | 11.3 | 27.4 | 0.00 | 0.00 | 0.00 | 33 | 1008.9 |
| 20260503200510 | 9 | 360 | 16.1 | 27.4 | 0.00 | 0.00 | 0.00 | 33 | 1008.9 |
| 20260503200010 | 9 | 360 | 11.3 | 27.4 | 0.00 | 0.00 | 0.00 | 31 | 1009.0 |
| 20260503195509 | 9 | 360 | 11.3 | 29.0 | 0.00 | 0.00 | 0.00 | 32 | 1009.1 |
| 20260503195011 | 9 | 360 | 17.7 | 32.2 | 0.00 | 0.00 | 0.00 | 31 | 1009.2 |
| 20260503194509 | 9 | 360 | 12.9 | 40.2 | 0.00 | 0.00 | 0.00 | 32 | 1009.2 |
| 20260503194008 | 8 | 360 | 17.7 | 40.2 | 0.00 | 0.00 | 0.00 | 32 | 1009.3 |
| 20260503193508 | 8 | 360 | 20.9 | 33.8 | 0.00 | 0.00 | 0.00 | 30 | 1009.2 |
| 20260503193007 | 8 | 360 | 14.5 | 29.0 | 0.00 | 0.00 | 0.00 | 31 | 1009.4 |
| 20260503192506 | 8 | 360 | 20.9 | 37.0 | 0.00 | 0.00 | 0.00 | 31 | 1009.5 |
| 20260503192007 | 9 | 360 | 20.9 | 37.0 | 0.00 | 0.00 | 0.00 | 34 | 1009.5 |
| 20260503191506 | 9 | 360 | 16.1 | 32.2 | 0.00 | 0.00 | 0.00 | 34 | 1009.4 |
| 20260503191004 | 9 | 360 | 12.9 | 32.2 | 0.00 | 0.00 | 0.00 | 35 | 1009.6 |
| 20260503190504 | 8 | 360 | 17.7 | 32.2 | 0.00 | 0.00 | 0.00 | 34 | 1009.6 |
| 20260503190005 | 8 | 360 | 14.5 | 30.6 | 0.00 | 0.00 | 0.00 | 36 | 1009.8 |
| 20260503185504 | 8 | 360 | 17.7 | 30.6 | 0.00 | 0.00 | 0.00 | 37 | 1009.8 |
| 20260503185003 | 8 | 360 | 17.7 | 40.2 | 0.00 | 0.00 | 0.00 | 36 | 1009.9 |
| 20260503184506 | 8 | 360 | 14.5 | 40.2 | 0.00 | 0.00 | 0.00 | 35 | 1010.0 |
| 20260503184100 | 8 | 360 | 11.3 | 32.2 | 0.00 | 0.00 | 0.00 | 35 | 1010.1 |
| 20260503183559 | 8 | 360 | 19.3 | 32.2 | 0.00 | 0.00 | 0.00 | 39 | 1010.1 |
| 20260503183109 | 8 | 360 | 12.9 | 30.6 | 0.00 | 0.00 | 0.00 | 36 | 1010.2 |
| 20260503182557 | 8 | 360 | 14.5 | 33.8 | 0.00 | 0.00 | 0.00 | 35 | 1010.3 |
| 20260503182057 | 8 | 360 | 16.1 | 33.8 | 0.00 | 0.00 | 0.00 | 37 | 1010.2 |
| 20260503181558 | 8 | 360 | 17.7 | 33.8 | 0.00 | 0.00 | 0.00 | 36 | 1010.3 |
| 20260503181056 | 8 | 360 | 19.3 | 33.8 | 0.00 | 0.00 | 0.00 | 37 | 1010.4 |
| 20260503180557 | 8 | 360 | 14.5 | 33.8 | 0.00 | 0.00 | 0.00 | 38 | 1010.3 |
| 20260503180058 | 8 | 360 | 16.1 | 33.8 | 0.00 | 0.00 | 0.00 | 34 | 1010.4 |
| 20260503175553 | 8 | 360 | 20.9 | 32.2 | 0.00 | 0.00 | 0.00 | 36 | 1010.4 |
| 20260503175052 | 8 | 360 | 14.5 | 29.0 | 0.00 | 0.00 | 0.00 | 37 | 1010.5 |
| 20260503174551 | 8 | 360 | 9.7 | 29.0 | 0.00 | 0.00 | 0.00 | 41 | 1010.5 |
| 20260503174053 | 7 | 360 | 6.4 | 35.4 | 0.00 | 0.00 | 0.00 | 40 | 1010.6 |
| 20260503173552 | 7 | 360 | 20.9 | 37.0 | 0.00 | 0.00 | 0.00 | 37 | 1010.6 |
| 20260503173109 | 7 | 360 | 24.1 | 37.0 | 0.00 | 0.00 | 0.00 | 35 | 1010.5 |
| 20260503172549 | 7 | 360 | 17.7 | 38.6 | 0.00 | 0.00 | 0.00 | 37 | 1010.7 |
| 20260503172051 | 7 | 360 | 22.5 | 38.6 | 0.00 | 0.00 | 0.00 | 37 | 1010.6 |
| 20260503171552 | 7 | 360 | 19.3 | 32.2 | 0.00 | 0.00 | 0.00 | 36 | 1010.6 |
| 20260503171048 | 7 | 360 | 11.3 | 38.6 | 0.00 | 0.00 | 0.00 | 38 | 1010.6 |
| 20260503170548 | 7 | 360 | 20.9 | 38.6 | 0.00 | 0.00 | 0.00 | 39 | 1010.5 |
| 20260503150538 | 4 | 360 | 12.9 | 30.6 | 0.00 | 0.00 | 0.00 | 47 | 1011.5 |
| 20260503131025 | 4 | 360 | 16.1 | 30.6 | 0.00 | 0.00 | 0.00 | 57 | 1011.8 |
| 20260503130523 | 3 | 360 | 14.5 | 30.6 | 0.00 | 0.00 | 0.00 | 59 | 1011.9 |
| 20260503110555 | 1 | 360 | 9.7 | 19.3 | 0.00 | 0.00 | 0.00 | 72 | 1011.2 |
| 20260503081539 | 0 | 360 | 0.0 | 3.2 | 0.00 | 0.00 | 0.00 | 81 | 1010.9 |
| 20260503081029 | 0 | 360 | 0.0 | 4.8 | 0.00 | 0.00 | 0.00 | 81 | 1010.9 |
| 20260503080530 | 0 | 360 | 0.0 | 4.8 | 0.00 | 0.00 | 0.00 | 81 | 1010.9 |
| 20260503072527 | 0 | 360 | 0.0 | 3.2 | 0.00 | 0.00 | 0.00 | 81 | 1011.0 |
| 20260503072025 | 0 | 360 | 0.0 | 3.2 | 0.00 | 0.00 | 0.00 | 81 | 1011.0 |
| 20260503071525 | 0 | 360 | 0.0 | 4.8 | 0.00 | 0.00 | 0.00 | 81 | 1011.0 |
| 20260503071025 | 0 | 360 | 0.0 | 8.0 | 0.00 | 0.00 | 0.00 | 81 | 1011.0 |
| 20260503070523 | 0 | 360 | 0.0 | 4.8 | 0.00 | 0.00 | 0.00 | 81 | 1011.0 |
| 20260503055013 | 0 | 360 | 0.0 | 4.8 | 0.00 | 0.00 | 0.00 | 82 | 1011.4 |
| 20260503054513 | 0 | 360 | 0.0 | 1.6 | 0.00 | 0.00 | 0.00 | 82 | 1011.5 |
| 20260503054012 | 0 | 360 | 0.0 | 1.6 | 0.00 | 0.00 | 0.00 | 82 | 1011.5 |
| 20260503053511 | 0 | 360 | 0.0 | 1.6 | 0.00 | 0.00 | 0.00 | 82 | 1011.6 |
| 20260503053012 | 0 | 360 | 0.0 | 1.6 | 0.00 | 0.00 | 0.00 | 82 | 1011.7 |
| 20260503052511 | 0 | 360 | 0.0 | 1.6 | 0.00 | 0.00 | 0.00 | 82 | 1011.8 |
| 20260503052011 | 0 | 360 | 0.0 | 1.6 | 0.00 | 0.00 | 0.00 | 82 | 1011.8 |
| 20260503051508 | 0 | 360 | 0.0 | 3.2 | 0.00 | 0.00 | 0.00 | 82 | 1012.0 |
| 20260503051007 | 0 | 360 | 0.0 | 3.2 | 0.00 | 0.00 | 0.00 | 82 | 1012.0 |
| 20260503050506 | 0 | 360 | 0.0 | 4.8 | 0.00 | 0.00 | 0.00 | 81 | 1012.1 |
| 20260503050007 | 0 | 360 | 0.0 | 4.8 | 0.00 | 0.00 | 0.00 | 81 | 1012.2 |
| 20260503045505 | 0 | 360 | 0.0 | 1.6 | 0.00 | 0.00 | 0.00 | 81 | 1012.2 |
| 20260503045004 | 0 | 360 | 0.0 | 1.6 | 0.00 | 0.00 | 0.00 | 81 | 1012.2 |
| 20260503044507 | 0 | 360 | 0.0 | 1.6 | 0.00 | 0.00 | 0.00 | 81 | 1012.2 |
| 20260503044004 | 0 | 360 | 0.0 | 1.6 | 0.00 | 0.00 | 0.00 | 81 | 1012.2 |
| 20260503043503 | 0 | 360 | 0.0 | 1.6 | 0.00 | 0.00 | 0.00 | 80 | 1012.2 |
| 20260503043003 | 0 | 360 | 0.0 | 6.4 | 0.00 | 0.00 | 0.00 | 80 | 1012.3 |
| 20260503042502 | 0 | 360 | 0.0 | 6.4 | 0.00 | 0.00 | 0.00 | 79 | 1012.3 |
| 20260503042002 | 0 | 360 | 0.0 | 0.0 | 0.00 | 0.00 | 0.00 | 79 | 1012.4 |
| 20260503041502 | 0 | 360 | 0.0 | 0.0 | 0.00 | 0.00 | 0.00 | 78 | 1012.4 |
| 20260503041100 | 0 | 360 | 0.0 | 0.0 | 0.00 | 0.00 | 0.00 | 78 | 1012.3 |
| 20260503040558 | 0 | 360 | 0.0 | 0.0 | 0.00 | 0.00 | 0.00 | 77 | 1012.4 |
| 20260503040057 | 0 | 360 | 0.0 | 1.6 | 0.00 | 0.00 | 0.00 | 77 | 1012.4 |
| 20260503035558 | 0 | 360 | 0.0 | 1.6 | 0.00 | 0.00 | 0.00 | 77 | 1012.5 |
| 20260503035059 | 0 | 360 | 0.0 | 1.6 | 0.00 | 0.00 | 0.00 | 76 | 1012.5 |
| 20260503034557 | 0 | 360 | 0.0 | 4.8 | 0.00 | 0.00 | 0.00 | 76 | 1012.5 |
| 20260503034057 | 0 | 360 | 1.6 | 4.8 | 0.00 | 0.00 | 0.00 | 76 | 1012.5 |
| 20260503033556 | 0 | 360 | 0.0 | 4.8 | 0.00 | 0.00 | 0.00 | 75 | 1012.5 |
| 20260503033100 | 0 | 360 | 0.0 | 6.4 | 0.00 | 0.00 | 0.00 | 75 | 1012.5 |
| 20260503032600 | 0 | 360 | 0.0 | 6.4 | 0.00 | 0.00 | 0.00 | 74 | 1012.5 |
| 20260503032056 | 0 | 360 | 1.6 | 8.0 | 0.00 | 0.00 | 0.00 | 74 | 1012.5 |
| 20260503031555 | 0 | 360 | 1.6 | 8.0 | 0.00 | 0.00 | 0.00 | 73 | 1012.4 |
| 20260503031054 | 1 | 360 | 1.6 | 8.0 | 0.00 | 0.00 | 0.00 | 73 | 1012.4 |
| 20260503030552 | 1 | 360 | 0.0 | 8.0 | 0.00 | 0.00 | 0.00 | 73 | 1012.4 |
| 20260503030053 | 1 | 360 | 1.6 | 9.7 | 0.00 | 0.00 | 0.00 | 72 | 1012.5 |
| 20260503025552 | 1 | 360 | 3.2 | 14.5 | 0.00 | 0.00 | 0.00 | 72 | 1012.4 |
| 20260503025052 | 1 | 360 | 4.8 | 14.5 | 0.00 | 0.00 | 0.00 | 72 | 1012.4 |
| 20260503024601 | 1 | 360 | 3.2 | 6.4 | 0.00 | 0.00 | 0.00 | 71 | 1012.4 |
| 20260503024052 | 1 | 360 | 1.6 | 8.0 | 0.00 | 0.00 | 0.00 | 71 | 1012.4 |
| 20260503023551 | 1 | 360 | 1.6 | 8.0 | 0.00 | 0.00 | 0.00 | 71 | 1012.4 |
| 20260503023052 | 1 | 360 | 3.2 | 8.0 | 0.00 | 0.00 | 0.00 | 71 | 1012.4 |
| 20260503022551 | 1 | 360 | 4.8 | 8.0 | 0.00 | 0.00 | 0.00 | 71 | 1012.3 |
| 20260503022050 | 1 | 360 | 1.6 | 4.8 | 0.00 | 0.00 | 0.00 | 70 | 1012.4 |
| 20260503021557 | 1 | 360 | 0.0 | 3.2 | 0.00 | 0.00 | 0.00 | 69 | 1012.4 |
| 20260503021053 | 1 | 360 | 0.0 | 4.8 | 0.00 | 0.00 | 0.00 | 69 | 1012.4 |
| 20260503020549 | 1 | 360 | 0.0 | 6.4 | 0.00 | 0.00 | 0.00 | 69 | 1012.4 |
| 20260503020056 | 1 | 360 | 1.6 | 6.4 | 0.00 | 0.00 | 0.00 | 68 | 1012.4 |
| 20260503015548 | 1 | 360 | 1.6 | 8.0 | 0.00 | 0.00 | 0.00 | 67 | 1012.3 |
| 20260503015047 | 1 | 360 | 1.6 | 9.7 | 0.00 | 0.00 | 0.00 | 67 | 1012.3 |
| 20260503014619 | 1 | 360 | 3.2 | 9.7 | 0.00 | 0.00 | 0.00 | 66 | 1012.2 |
| 20260503014047 | 2 | 360 | 4.8 | 9.7 | 0.00 | 0.00 | 0.00 | 66 | 1012.3 |
| 20260503013546 | 2 | 360 | 3.2 | 9.7 | 0.00 | 0.00 | 0.00 | 70 | 1012.4 |
| 20260503013046 | 2 | 360 | 3.2 | 9.7 | 0.00 | 0.00 | 0.00 | 65 | 1012.3 |
| 20260503012548 | 2 | 360 | 3.2 | 6.4 | 0.00 | 0.00 | 0.00 | 65 | 1012.3 |
| 20260503012047 | 2 | 360 | 1.6 | 8.0 | 0.00 | 0.00 | 0.00 | 64 | 1012.3 |
| 20260503011555 | 2 | 360 | 3.2 | 8.0 | 0.00 | 0.00 | 0.00 | 63 | 1012.2 |
| 20260503011044 | 2 | 360 | 1.6 | 8.0 | 0.00 | 0.00 | 0.00 | 63 | 1012.2 |
| 20260503010544 | 2 | 360 | 1.6 | 8.0 | 0.00 | 0.00 | 0.00 | 63 | 1012.1 |
| 20260503010052 | 2 | 360 | 1.6 | 8.0 | 0.00 | 0.00 | 0.00 | 63 | 1012.1 |
| 20260503005545 | 2 | 360 | 0.0 | 6.4 | 0.00 | 0.00 | 0.00 | 62 | 1012.1 |
| 20260503005046 | 2 | 360 | 0.0 | 6.4 | 0.00 | 0.00 | 0.00 | 62 | 1012.0 |
| 20260503004557 | 2 | 360 | 1.6 | 8.0 | 0.00 | 0.00 | 0.00 | 61 | 1012.0 |
| 20260503004044 | 2 | 360 | 3.2 | 8.0 | 0.00 | 0.00 | 0.00 | 61 | 1011.9 |
| 20260503003543 | 2 | 360 | 3.2 | 8.0 | 0.00 | 0.00 | 0.00 | 60 | 1012.0 |
| 20260503003043 | 2 | 360 | 1.6 | 9.7 | 0.00 | 0.00 | 0.00 | 60 | 1012.0 |
| 20260503002544 | 3 | 360 | 4.8 | 12.9 | 0.00 | 0.00 | 0.00 | 60 | 1012.0 |
| 20260503002043 | 3 | 360 | 4.8 | 14.5 | 0.00 | 0.00 | 0.00 | 59 | 1011.9 |
| 20260503001550 | 3 | 360 | 6.4 | 14.5 | 0.00 | 0.00 | 0.00 | 59 | 1011.9 |
| 20260503001044 | 3 | 360 | 0.0 | 14.5 | 0.00 | 0.00 | 0.00 | 60 | 1011.9 |
| 20260503000542 | 3 | 360 | 4.8 | 14.5 | 0.00 | 0.00 | 0.00 | 60 | 1011.9 |
| 20260503000044 | 3 | 360 | 3.2 | 9.7 | 0.00 | 0.00 | 0.00 | 61 | 1011.9 |
| 20260502235541 | 3 | 360 | 3.2 | 9.7 | 0.00 | 0.00 | 0.00 | 61 | 1011.8 |
| 20260502235041 | 3 | 360 | 3.2 | 16.1 | 0.00 | 0.00 | 0.00 | 61 | 1011.7 |
| 20260502234545 | 3 | 360 | 3.2 | 16.1 | 0.00 | 0.00 | 0.00 | 61 | 1011.7 |
| 20260502234045 | 3 | 360 | 4.8 | 14.5 | 0.00 | 0.00 | 0.00 | 61 | 1011.7 |
| 20260502233541 | 3 | 360 | 4.8 | 14.5 | 0.00 | 0.00 | 0.00 | 60 | 1011.7 |
| 20260502233045 | 3 | 360 | 6.4 | 14.5 | 0.00 | 0.00 | 0.00 | 60 | 1011.6 |
| 20260502232541 | 4 | 360 | 4.8 | 12.9 | 0.00 | 0.00 | 0.00 | 60 | 1011.5 |
| 20260502232041 | 4 | 360 | 1.6 | 16.1 | 0.00 | 0.00 | 0.00 | 60 | 1011.5 |
| 20260502231542 | 4 | 360 | 4.8 | 22.5 | 0.00 | 0.00 | 0.00 | 61 | 1011.5 |
| 20260502231041 | 3 | 360 | 4.8 | 22.5 | 0.00 | 0.00 | 0.00 | 60 | 1011.4 |
| 20260502230541 | 3 | 360 | 8.0 | 17.7 | 0.00 | 0.00 | 0.00 | 61 | 1011.4 |
| 20260502230040 | 3 | 360 | 9.7 | 19.3 | 0.00 | 0.00 | 0.00 | 62 | 1011.4 |
| 20260502225540 | 4 | 309 | 11.3 | 22.5 | 0.00 | 0.00 | 0.00 | 62 | 1011.5 |
| 20260502225042 | 4 | 360 | 11.3 | 22.5 | 0.00 | 0.00 | 0.00 | 61 | 1011.4 |
| 20260502224540 | 4 | 360 | 6.4 | 19.3 | 0.00 | 0.00 | 0.00 | 62 | 1011.4 |
| 20260502224040 | 4 | 360 | 8.0 | 19.3 | 0.00 | 0.00 | 0.00 | 62 | 1011.5 |
| 20260502223540 | 4 | 360 | 11.3 | 19.3 | 0.00 | 0.00 | 0.00 | 61 | 1011.5 |
| 20260502223042 | 4 | 360 | 8.0 | 19.3 | 0.00 | 0.00 | 0.00 | 60 | 1011.4 |
| 20260502222540 | 4 | 360 | 9.7 | 16.1 | 0.00 | 0.00 | 0.00 | 60 | 1011.4 |
| 20260502222039 | 5 | 360 | 4.8 | 24.1 | 0.00 | 0.00 | 0.00 | 59 | 1011.3 |
| 20260502221539 | 5 | 360 | 16.1 | 24.1 | 0.00 | 0.00 | 0.00 | 59 | 1011.4 |
| 20260502221039 | 5 | 360 | 14.5 | 22.5 | 0.00 | 0.00 | 0.00 | 58 | 1011.4 |
| 20260502220640 | 5 | 360 | 11.3 | 24.1 | 0.00 | 0.00 | 0.00 | 58 | 1011.4 |
| 20260502220039 | 5 | 360 | 16.1 | 24.1 | 0.00 | 0.00 | 0.00 | 58 | 1011.4 |
| 20260502215541 | 5 | 360 | 14.5 | 24.1 | 0.00 | 0.00 | 0.00 | 58 | 1011.4 |
| 20260502215042 | 5 | 360 | 6.4 | 20.9 | 0.00 | 0.00 | 0.00 | 57 | 1011.3 |
| 20260502214538 | 5 | 360 | 8.0 | 25.7 | 0.00 | 0.00 | 0.00 | 58 | 1011.4 |
| 20260502214038 | 5 | 360 | 17.7 | 25.7 | 0.00 | 0.00 | 0.00 | 57 | 1011.4 |
| 20260502213537 | 5 | 360 | 14.5 | 22.5 | 0.00 | 0.00 | 0.00 | 57 | 1011.4 |
| 20260502213037 | 5 | 360 | 11.3 | 25.7 | 0.00 | 0.00 | 0.00 | 56 | 1011.3 |
| 20260502212538 | 5 | 360 | 17.7 | 27.4 | 0.00 | 0.00 | 0.00 | 56 | 1011.3 |
| 20260502212038 | 5 | 360 | 12.9 | 27.4 | 0.00 | 0.00 | 0.00 | 56 | 1011.3 |
| 20260502211545 | 5 | 360 | 14.5 | 27.4 | 0.00 | 0.00 | 0.00 | 57 | 1011.3 |
| 20260502211037 | 5 | 360 | 12.9 | 22.5 | 0.00 | 0.00 | 0.00 | 57 | 1011.2 |
| 20260502210538 | 5 | 360 | 12.9 | 22.5 | 0.00 | 0.00 | 0.00 | 57 | 1011.3 |
| 20260502210040 | 5 | 360 | 16.1 | 20.9 | 0.00 | 0.00 | 0.00 | 57 | 1011.2 |
| 20260502205536 | 5 | 360 | 9.7 | 19.3 | 0.00 | 0.00 | 0.00 | 58 | 1011.3 |
| 20260502205036 | 5 | 360 | 12.9 | 19.3 | 0.00 | 0.00 | 0.00 | 57 | 1011.2 |
| 20260502204537 | 5 | 360 | 9.7 | 17.7 | 0.00 | 0.00 | 0.00 | 55 | 1011.3 |
| 20260502204039 | 5 | 360 | 9.7 | 16.1 | 0.00 | 0.00 | 0.00 | 56 | 1011.3 |